Tracking 35331 objects as of 16-Sep-2026
HD Live streaming from Space Station
objects crossing your sky now

COSMOS 880 DEB


COSMOS 880 DEB is no longer on orbit


NORAD ID: 11189
Int'l Code: 1976-120Q
Launch date: December 9, 1976
Source: Commonwealth of Independent States (former USSR) (CIS)
Launch site: PLESETSK MISSILE AND SPACE COMPLEX (PKMTR)
Decay date: 1979-02-23

Note: This is SATELLITE DEBRIS
Your satellite tracking list
Your tracking list is empty




NASA's NSSDC Master Catalog

Two Line Element Set (TLE):
1 11189U 76120  Q 79037.72122161  .00765896 +00000-0 +00000-0 0  9995
2 11189 065.8507 154.3697 0012497 281.2741 078.6947 15.29324818117908
Source of the keplerian elements: AFSPC